Weather in Varvarinka

Russia / Lipetsk Oblast     52°46′54″N   39°26′29″E
temp.,
°C
wind,
m/s
gust,
m/s
humid.,
%
clouds,
%
prec.,
mm/h
press.,
hPa
HPBL,
m
8 march, mon
mon800:00−4w51581100 1.3 1001686
03:00−5wsw51284100 1.3 1002327
06:00−6wsw5128792 0.0 1002302
09:00−5wsw7138596 0.0 1002593
12:00−3w8128041 0.0 10031174
15:00−3wnw7108170 0.1 10051139
18:00−6wnw3889100 0.1 1007169
21:00−10nw238967 0.1 100926
9 march, tue
tue900:00−11wnw23890 0.0 101023
03:00−12nw23910 0.0 101127
06:00−12nnw349463 0.0 101293
09:00−11n469478 0.1 1013258
12:00−10nnw468975 0.0 1015420
15:00−10nnw578683 0.0 1016616
18:00−12nw3793100 0.0 1018213
21:00−15nw479468 0.0 1020148
10 march, wed
wed1000:00−16nw369639 0.0 1022113
03:00−18nw369522 0.0 1023120
06:00−20nw46951 0.0 1024142
09:00−19nnw47920 0.0 1026260
12:00−16nnw458827 0.0 1027346
15:00−15nnw348548 0.0 1027445
18:00−16n349199 0.0 1027246
21:00−21n349567 0.0 102985
11 march, thu
thu1100:00−21nne23950 0.0 103056
03:00−22nne23970 0.0 103144
06:00−23nne23960 0.0 103243
09:00−20ne229010 0.0 1033132
12:00−16e12770 0.0 1033369
15:00−13ese12700 0.0 1033486
18:00−16ese23850 0.0 103225
21:00−18se33880 0.0 103339
12 march, fri
fri1200:00−18sse34860 0.0 103368
03:00−19sse46840 0.0 1032113
06:00−19sse49870 0.0 1031173
09:00−15sse6108423 0.0 1030309
12:00−11sse71179100 0.0 1027444
15:00−8sse81378100 0.0 1025629
18:00−9sse81573100 0.0 1022714
21:00−8sse81668100 0.0 1020812